User: anonymous   Login
Location: Huntington Beach
(33.6600°N, 117.9980°W)
Time: 12:12:17
(UTC-08:00)
Language:

SL-16 R/B - Orbit

View from above orbital plane
View from above orbital plane
View from above satellite
View from above satellite

Ground track
Ground track

The orbit data is extracted from the following two-line orbital elements,

1 28353U 04021B   17017.62898824 -.00000038 +00000-0 +52614-5 0  9996
2 28353 071.0018 034.2089 0003034 046.0527 314.0845 14.14194179650861
Epoch (UTC): 17 January 2017 15:05:44
Eccentricity: 0.0003034
inclination: 71.0018°
perigee height: 843 km
apogee height: 847 km
right ascension of ascending node: 34.2089°
argument of perigee: 46.0527°
revolutions per day: 14.14194179
mean anomaly at epoch: 314.0845°
orbit number at epoch: 65086

The dashed part of the orbit path shows where the satellite is in the earth's shadow,  

DLR